Vertical_Velocity
-5 -5 -3 -1 -3 -3 0 -2 -1 -2 7 3 1 -1 2 -2 2 2 9 13 6 -0 1 -0 3 15 1 2 -1 -2 -3 -2 2 1 -2 -1 1 1 1 -0 1 1 -3 0 1
-5 -4 -2 2 -4 1 -2 -3 3 0 1 1 -1 3 0 2 1 5 0 4 0 -1 -2 4 5 4 3 1 -1 -2 -2 -2 2 0 -3 0 1 0 1 0 -2 0 0 -1 -1
-5 -3 -2 -1 -1 -1 -1 -3 -1 -1 -2 8 2 -1 -0 3 2 2 3 2 1 -3 1 2 0 2 -0 1 -2 -1 -0 1 1 -2 -0 0 -0 0 0 -0 -1 -0 1 1 0
-4 -5 -1 -2 -1 -1 -4 -2 -2 -1 -1 0 3 2 2 2 9 0 2 2 -2 0 -3 2 1 2 1 -1 -2 -3 -1 1 -1 -0 1 1 1 -0 0 -0 -2 -0 -2 -0 -1
-1 -3 1 -1 -0 1 -7 5 -2 -1 -1 1 2 5 1 4 2 3 2 1 2 0 -1 -0 10 2 -0 1 -1 -2 -1 -1 -0 1 0 1 1 -1 3 -2 -1 1 -2 -1 1
-1 -2 -2 -3 -0 2 -2 1 -1 2 -3 7 2 6 -1 5 3 3 2 1 1 1 1 3 -0 4 2 -1 -4 2 0 -0 2 0 0 1 0 -0 -0 -1 -1 0 -2 -2 -1
-2 -4 -3 2 1 3 4 -9 5 11 25 2 4 5 -1 0 3 3 1 3 5 5 1 2 10 -0 8 1 -2 1 -2 -1 1 0 1 1 1 -0 -1 -1 1 1 -0 -1 -1
2 -3 -7 0 -1 0 2 6 -2 5 2 -0 4 1 1 2 1 4 2 0 3 2 -2 11 -16 9 -0 3 0 -1 -2 -2 1 0 1 1 1 -1 -1 1 1 -0 -0 -0 1
2 1 -5 -8 -1 -2 0 3 -2 3 5 1 1 3 -2 1 0 -1 1 3 1 3 -0 -4 -4 5 -0 4 -3 -2 2 0 -1 -0 -1 0 2 -1 -1 -0 1 0 -1 -1 -0
-0 2 4 -6 -6 -2 0 -0 1 1 1 -1 -4 3 -1 -1 3 1 2 1 2 1 1 5 -15 -8 -1 -1 5 2 -0 1 -2 2 -0 -1 -3 -1 -1 1 2 0 -2 -1 -1
5 -0 1 4 -5 -0 -2 -1 -1 0 1 2 -5 -2 3 -2 2 2 3 3 2 2 -3 -0 -1 11 4 -5 0 3 -1 -1 2 1 -0 -1 -3 0 0 0 -0 -1 -1 -1 -1
-0 3 1 1 0 -6 -3 0 -2 2 0 4 -1 0 -0 2 4 2 -3 -1 4 4 -1 -4 4 -1 -0 2 1 -0 -1 3 -0 -0 -2 -1 0 -1 3 0 -1 -0 -1 1 -1
-2 4 3 2 -0 1 -5 -4 -2 -2 -1 1 1 3 4 3 3 5 4 5 5 2 3 2 3 1 3 -0 -1 0 1 1 -1 -2 -1 -1 3 -1 -1 0 -0 -0 -1 1 2
-0 -3 4 2 2 1 -1 0 -3 1 -0 0 -0 -4 -1 1 3 1 3 2 4 3 1 -2 -2 0 -0 0 2 1 1 0 -2 0 1 -2 -6 6 1 -2 -1 -1 -1 0 1
1 2 -0 1 0 2 1 2 -4 -1 -3 -0 -0 2 0 1 4 -0 3 0 2 3 4 12 4 3 1 2 0 3 1 1 -0 -2 -5 5 -14 19 1 3 -2 -1 -2 0 1
-0 3 -1 3 1 2 1 1 0 -4 -3 -2 -1 -2 1 -2 2 1 3 2 2 1 1 2 0 -1 5 2 0 2 2 -0 -2 -2 -9 4 -11 13 6 1 2 -1 -2 -1 -0
2 -2 7 2 4 2 2 0 -2 -7 0 0 -1 1 -0 0 1 1 2 4 3 1 2 2 3 2 -1 -1 -0 1 -0 -2 -7 -3 -3 4 -10 13 2 0 0 -1 -3 -1 -1
-3 3 -1 -2 2 4 1 -2 -3 2 1 2 1 0 1 1 1 0 1 -1 2 2 2 1 -1 1 4 2 0 -1 0 -1 -3 -2 -1 -1 -9 7 2 -0 -2 1 -2 -2 -0
4 -6 2 6 1 0 1 -7 8 6 2 2 1 -0 1 -0 0 0 -1 1 -1 2 -2 1 -1 1 -0 1 0 7 1 1 -1 -3 -6 -4 2 -0 4 -0 -3 -3 -0 1 2
-3 2 -0 -0 2 1 -4 4 1 1 3 3 3 2 2 1 -2 -2 -0 4 2 0 0 0 -1 1 -0 -0 0 -0 2 -2 1 -11 -5 -4 -5 2 5 0 -3 -2 -1 -1 1
-4 -2 10 -3 -2 -1 -8 1 4 4 3 -1 2 3 4 4 3 2 -3 5 1 1 1 4 1 3 -1 3 1 -1 -1 -1 0 -8 -5 -7 0 4 5 1 -1 1 0 1 -2
1 -9 16 4 -7 -2 2 9 7 3 2 4 0 1 0 3 2 1 4 3 4 1 3 3 -1 -1 -0 -1 -3 -3 0 -1 -4 -1 -4 -6 1 2 3 0 -1 1 2 1 1
-2 6 1 2 -11 -0 5 4 1 4 4 -1 6 4 2 0 1 4 2 3 1 2 -3 4 -4 -1 0 -1 1 -1 5 1 -2 -1 2 -7 7 6 -2 -1 -1 -0 -0 0 1
7 1 1 -4 7 4 -0 1 1 3 1 2 -2 5 7 2 -1 -1 1 2 2 0 1 -4 2 -1 -0 -2 0 -0 3 0 -3 -3 8 5 -3 6 -0 -1 -0 1 1 1 1
-0 -3 2 -17 6 13 1 2 3 2 4 -2 1 5 1 -0 4 1 4 3 3 2 1 -4 2 -1 -1 -2 -1 -2 1 0 -2 2 -11 15 -3 -2 -2 -2 1 -2 -2 -2 -1
9 4 -1 5 9 10 -1 7 6 9 0 5 -2 7 3 0 7 4 -0 3 -0 3 1 2 -2 0 -1 0 -3 -3 -3 2 0 2 -4 -5 6 -1 -6 -3 1 2 1 -0 1
5 12 2 2 4 -0 -3 25 20 2 -0 2 10 -4 -2 11 -1 1 -0 -3 -3 -1 -1 -3 -1 3 -5 -1 -5 -19 14 0 1 6 -2 -5 7 2 -4 -4 -2 -2 -2 -1 -1
Height
5702 5694 5686 5678 5671 5664 5660 5657 5653 5651 5652 5659 5667 5677 5689 5703 5717 5732 5747 5761 5774 5785 5798 5804 5813 5816 5820 5829 5836 5840 5847 5851 5852 5853 5855 5856 5858 5860 5863 5864 5864 5864 5865 5865 5865
5703 5695 5686 5678 5672 5664 5658 5654 5652 5650 5653 5659 5666 5676 5686 5700 5714 5728 5741 5755 5768 5780 5794 5800 5808 5814 5820 5827 5833 5839 5845 5847 5849 5850 5850 5853 5855 5858 5860 5861 5862 5862 5862 5862 5862
5705 5698 5688 5679 5671 5665 5659 5653 5650 5649 5653 5657 5665 5675 5684 5696 5712 5725 5738 5751 5765 5776 5787 5796 5805 5811 5819 5825 5831 5838 5842 5843 5845 5846 5847 5850 5853 5855 5857 5858 5859 5859 5859 5859 5858
5709 5702 5692 5683 5675 5668 5660 5651 5652 5649 5654 5660 5667 5675 5685 5695 5714 5724 5737 5750 5761 5772 5783 5793 5802 5809 5816 5823 5828 5835 5837 5839 5841 5843 5845 5848 5850 5853 5854 5855 5856 5856 5856 5855 5855
5714 5706 5698 5690 5681 5673 5665 5658 5657 5657 5660 5666 5672 5678 5687 5700 5713 5724 5736 5747 5758 5770 5782 5791 5800 5807 5814 5820 5827 5831 5833 5836 5837 5840 5843 5846 5848 5850 5851 5852 5853 5852 5852 5852 5851
5720 5712 5705 5698 5690 5683 5676 5668 5666 5666 5668 5673 5678 5683 5692 5705 5716 5727 5737 5746 5757 5769 5780 5788 5796 5804 5811 5817 5823 5826 5829 5832 5834 5838 5841 5843 5845 5847 5848 5849 5849 5849 5848 5847 5847
5725 5719 5711 5705 5699 5692 5686 5678 5676 5674 5674 5680 5683 5688 5699 5710 5719 5729 5737 5746 5756 5767 5778 5786 5794 5800 5808 5813 5818 5821 5825 5828 5832 5835 5838 5840 5842 5844 5844 5844 5845 5845 5844 5843 5842
5731 5725 5720 5712 5707 5700 5695 5690 5684 5682 5683 5687 5690 5696 5706 5714 5722 5729 5736 5746 5756 5767 5776 5784 5789 5798 5804 5810 5814 5817 5821 5825 5829 5832 5834 5836 5838 5839 5840 5840 5840 5840 5840 5839 5838
5734 5729 5725 5720 5715 5710 5704 5700 5696 5694 5693 5696 5700 5705 5712 5718 5724 5731 5738 5746 5756 5766 5775 5781 5788 5796 5802 5807 5810 5813 5818 5822 5825 5828 5830 5832 5833 5835 5835 5835 5834 5835 5834 5834 5833
5737 5733 5729 5726 5722 5718 5713 5710 5708 5705 5705 5706 5709 5714 5719 5723 5727 5734 5741 5750 5758 5767 5776 5782 5791 5794 5800 5803 5807 5812 5815 5819 5821 5824 5826 5827 5828 5830 5831 5830 5830 5829 5828 5827 5826
5740 5736 5733 5730 5728 5725 5722 5719 5718 5717 5714 5716 5718 5719 5722 5727 5733 5738 5745 5752 5759 5767 5774 5780 5786 5793 5797 5799 5803 5807 5811 5815 5817 5819 5821 5822 5822 5825 5825 5825 5824 5823 5823 5821 5820
5741 5739 5735 5733 5731 5730 5728 5725 5724 5723 5722 5721 5722 5725 5728 5732 5737 5743 5749 5755 5761 5768 5774 5780 5785 5789 5791 5796 5800 5804 5808 5811 5813 5814 5816 5817 5817 5819 5820 5819 5818 5817 5816 5815 5814
5742 5738 5737 5734 5732 5731 5731 5730 5728 5728 5727 5727 5727 5729 5732 5735 5740 5745 5749 5754 5760 5766 5771 5775 5781 5784 5788 5792 5796 5800 5803 5805 5807 5808 5810 5811 5813 5812 5813 5812 5812 5810 5809 5808 5807
5742 5738 5736 5734 5734 5732 5731 5730 5730 5729 5730 5731 5731 5733 5736 5738 5742 5745 5748 5754 5759 5764 5767 5771 5776 5780 5785 5788 5792 5794 5797 5799 5801 5803 5804 5805 5805 5807 5806 5805 5804 5803 5802 5801 5800
5740 5735 5733 5733 5731 5731 5731 5730 5730 5730 5731 5733 5732 5734 5736 5739 5743 5744 5748 5752 5757 5761 5766 5771 5773 5777 5780 5783 5786 5790 5791 5793 5794 5795 5796 5799 5797 5800 5799 5797 5796 5796 5794 5792 5791
5734 5734 5728 5728 5728 5728 5728 5728 5728 5730 5729 5731 5732 5734 5735 5738 5740 5743 5746 5750 5754 5757 5761 5765 5769 5772 5775 5778 5781 5783 5785 5786 5787 5788 5788 5790 5790 5789 5791 5791 5789 5787 5785 5784 5782
5726 5725 5725 5721 5724 5723 5723 5724 5725 5725 5727 5729 5731 5732 5733 5736 5738 5741 5744 5747 5751 5754 5757 5761 5764 5767 5770 5772 5775 5777 5779 5779 5780 5780 5781 5781 5781 5783 5781 5780 5779 5778 5776 5774 5772
5716 5716 5717 5714 5715 5717 5717 5718 5718 5721 5722 5724 5726 5728 5731 5732 5735 5738 5740 5743 5747 5750 5754 5756 5760 5762 5765 5767 5769 5769 5771 5771 5770 5772 5773 5772 5772 5775 5773 5771 5768 5766 5764 5763 5761
5702 5705 5707 5705 5704 5707 5709 5709 5714 5715 5717 5719 5720 5723 5725 5728 5731 5733 5736 5739 5742 5745 5748 5750 5753 5756 5758 5759 5761 5762 5763 5764 5762 5762 5763 5764 5765 5765 5764 5762 5759 5758 5756 5754 5753
5684 5689 5693 5694 5692 5694 5697 5702 5706 5708 5710 5712 5714 5716 5719 5722 5725 5727 5729 5734 5736 5739 5741 5744 5747 5749 5750 5752 5753 5755 5756 5756 5756 5754 5754 5754 5755 5756 5755 5753 5752 5750 5748 5746 5744
5663 5670 5678 5680 5681 5679 5686 5694 5696 5699 5701 5704 5707 5709 5712 5715 5717 5720 5723 5728 5729 5732 5734 5737 5739 5742 5742 5744 5746 5746 5747 5747 5747 5746 5744 5744 5746 5746 5746 5744 5742 5741 5738 5736 5735
5638 5648 5659 5662 5666 5666 5677 5684 5686 5688 5689 5693 5697 5701 5703 5706 5709 5711 5716 5718 5722 5724 5727 5728 5728 5731 5734 5735 5736 5737 5738 5738 5736 5736 5734 5732 5735 5734 5735 5733 5730 5728 5727 5725 5724
5614 5625 5635 5641 5645 5656 5664 5669 5672 5676 5678 5681 5686 5690 5694 5697 5699 5703 5707 5709 5712 5714 5715 5718 5717 5721 5723 5725 5726 5726 5727 5726 5724 5723 5722 5724 5724 5724 5722 5719 5717 5716 5715 5713 5711
5593 5598 5610 5621 5628 5640 5649 5654 5658 5664 5667 5670 5674 5678 5683 5686 5689 5693 5697 5701 5703 5704 5706 5707 5707 5710 5713 5713 5714 5714 5715 5714 5713 5711 5715 5713 5714 5712 5709 5707 5706 5704 5702 5700 5697
5575 5580 5587 5599 5612 5624 5632 5639 5646 5651 5655 5658 5661 5668 5674 5676 5678 5680 5686 5689 5692 5693 5694 5694 5696 5699 5700 5701 5702 5703 5704 5704 5702 5704 5702 5706 5702 5701 5698 5696 5693 5691 5688 5685 5682
5557 5564 5569 5580 5593 5603 5612 5621 5631 5638 5642 5648 5651 5657 5658 5661 5667 5670 5672 5674 5676 5679 5680 5681 5682 5686 5686 5687 5689 5689 5688 5690 5694 5694 5691 5691 5689 5691 5686 5683 5680 5677 5674 5671 5668
5542 5547 5552 5561 5570 5582 5595 5607 5616 5621 5625 5631 5637 5641 5644 5650 5651 5656 5659 5662 5663 5665 5667 5669 5670 5673 5673 5676 5675 5671 5679 5680 5681 5680 5680 5677 5679 5674 5672 5669 5666 5663 5659 5656 5652